This is the latest recevied weather packets stored in our database for station/object IU2RPR-3. If no packets are shown the sender has not sent any weather packets the latest 10 day(s).
| Time | Temp. | Humidity | Pressure | Rain* | Wind** | Luminosity | Snow |
|---|---|---|---|---|---|---|---|
| 1787974536 | 19.44° C | 92% | 1012 hPa | - | - | - | - |
| 1787973334 | 20° C | 90% | 1011.8 hPa | - | - | - | - |
| 1787972133 | 20° C | 88% | 1011.5 hPa | - | - | - | - |
| 1787970931 | 20° C | 91% | 1011.7 hPa | - | - | - | - |
| 1787969730 | 20.56° C | 89% | 1011.8 hPa | - | - | - | - |
| 1787968528 | 20° C | 88% | 1011.8 hPa | - | - | - | - |
| 1787967327 | 20° C | 89% | 1011.9 hPa | - | - | - | - |
| 1787966125 | 20° C | 91% | 1011.9 hPa | - | - | - | - |
| 1787964923 | 20.56° C | 90% | 1012.1 hPa | - | - | - | - |
| 1787963727 | 20.56° C | 90% | 1012.1 hPa | - | - | - | - |
| 1787962519 | 20.56° C | 91% | 1012.2 hPa | - | - | - | - |
| 1787961317 | 20.56° C | 92% | 1012.2 hPa | - | - | - | - |
| 1787960114 | 20.56° C | 90% | 1012.2 hPa | - | - | - | - |
| 1787958913 | 20.56° C | 89% | 1012.2 hPa | - | - | - | - |
| 1787957711 | 20.56° C | 88% | 1012.1 hPa | - | - | - | - |
| 1787956509 | 20.56° C | 90% | 1012 hPa | - | - | - | - |
| 1787955307 | 21.11° C | 87% | 1011.8 hPa | - | - | - | - |
| 1787954105 | 20.56° C | 89% | 1011.9 hPa | - | - | - | - |
| 1787952902 | 21.11° C | 87% | 1011.8 hPa | - | - | - | - |
| 1787951701 | 21.11° C | 84% | 1011.7 hPa | - | - | - | - |
| 1787950509 | 21.11° C | 83% | 1011.7 hPa | - | - | - | - |
| 1787949298 | 20.56° C | 86% | 1011.7 hPa | - | - | - | - |
| 1787948093 | 21.11° C | 88% | 1012 hPa | - | - | - | - |
| 1787946888 | 21.11° C | 87% | 1011.9 hPa | - | - | - | - |
| 1787945685 | 20.56° C | 89% | 1011.9 hPa | - | - | - | - |
* Rain since midnight (hover to see other rain measurements)
** Current wind speed in m/s (hover to see current wind gust speed)